Time,TemperatureF,DewpointF,PressureIn,WindDirection,WindDirectionDegrees,WindSpeedMPH,WindSpeedGustMPH,Humidity,HourlyPrecipIn,Conditions,Clouds,dailyrainin,SoftwareType,DateUTC
2018-04-19 00:00:00,-999.9,-99.9,-100.00,North,-9999,5.0,11.0,9,-99.99,,,-99.99,,2018-04-19 06:00:00,
2018-04-19 00:38:00,-999.9,-99.9,-100.00,North,-9999,5.0,11.0,9,-99.99,,,-99.99,,2018-04-19 06:38:00,
2018-04-19 01:00:00,63.0,5.0,-100.00,North,-9999,3.0,10.0,10,-99.99,,,-99.99,,2018-04-19 07:00:00,
2018-04-19 01:35:00,63.0,5.0,-100.00,North,-9999,3.0,10.0,10,-99.99,,,-99.99,,2018-04-19 07:35:00,
2018-04-19 02:00:00,63.0,6.0,-100.00,North,-9999,8.0,14.0,9,-99.99,,,-99.99,,2018-04-19 08:00:00,
2018-04-19 02:35:00,63.0,6.0,-100.00,North,-9999,8.0,14.0,9,-99.99,,,-99.99,,2018-04-19 08:35:00,
2018-04-19 03:00:00,62.0,5.0,-100.00,North,-9999,8.0,14.0,10,-99.99,,,-99.99,,2018-04-19 09:00:00,
2018-04-19 03:35:00,62.0,5.0,-100.00,North,-9999,8.0,14.0,10,-99.99,,,-99.99,,2018-04-19 09:35:00,
2018-04-19 04:00:00,61.0,6.0,-100.00,North,-9999,7.0,12.0,10,-99.99,,,-99.99,,2018-04-19 10:00:00,
2018-04-19 04:35:00,61.0,6.0,-100.00,North,-9999,7.0,12.0,10,-99.99,,,-99.99,,2018-04-19 10:35:00,
2018-04-19 05:00:00,60.0,6.0,-100.00,North,-9999,6.0,12.0,10,-99.99,,,-99.99,,2018-04-19 11:00:00,
2018-04-19 05:35:00,60.0,6.0,-100.00,North,-9999,6.0,12.0,10,-99.99,,,-99.99,,2018-04-19 11:35:00,
2018-04-19 06:00:00,59.0,7.0,-100.00,North,-9999,4.0,12.0,11,-99.99,,,-99.99,,2018-04-19 12:00:00,
2018-04-19 06:35:00,59.0,7.0,-100.00,North,-9999,4.0,12.0,11,-99.99,,,-99.99,,2018-04-19 12:35:00,
2018-04-19 11:00:00,72.0,13.0,-100.00,North,-9999,12.0,19.0,10,-99.99,,,-99.99,,2018-04-19 17:00:00,
2018-04-19 11:35:00,72.0,13.0,-100.00,North,-9999,12.0,19.0,10,-99.99,,,-99.99,,2018-04-19 17:35:00,
2018-04-19 12:00:00,74.0,14.0,-100.00,North,-9999,13.0,19.0,9,-99.99,,,-99.99,,2018-04-19 18:00:00,
2018-04-19 12:35:00,74.0,14.0,-100.00,North,-9999,13.0,19.0,9,-99.99,,,-99.99,,2018-04-19 18:35:00,
2018-04-19 13:00:00,76.0,16.0,-100.00,North,-9999,13.0,21.0,10,-99.99,,,-99.99,,2018-04-19 19:00:00,
2018-04-19 13:35:00,76.0,16.0,-100.00,North,-9999,13.0,21.0,10,-99.99,,,-99.99,,2018-04-19 19:35:00,
2018-04-19 14:00:00,79.0,20.0,-100.00,North,-9999,12.0,21.0,10,-99.99,,,-99.99,,2018-04-19 20:00:00,
2018-04-19 14:35:00,79.0,20.0,-100.00,North,-9999,12.0,21.0,10,-99.99,,,-99.99,,2018-04-19 20:35:00,
2018-04-19 15:00:00,78.0,22.0,-100.00,North,-9999,11.0,21.0,11,-99.99,,,-99.99,,2018-04-19 21:00:00,
2018-04-19 15:35:00,78.0,22.0,-100.00,North,-9999,11.0,21.0,11,-99.99,,,-99.99,,2018-04-19 21:35:00,
2018-04-19 16:00:00,78.0,30.0,-100.00,North,-9999,13.0,26.0,16,-99.99,,,-99.99,,2018-04-19 22:00:00,
2018-04-19 16:35:00,78.0,30.0,-100.00,North,-9999,13.0,26.0,16,-99.99,,,-99.99,,2018-04-19 22:35:00,
2018-04-19 17:00:00,79.0,30.0,-100.00,North,-9999,16.0,25.0,16,-99.99,,,-99.99,,2018-04-19 23:00:00,
2018-04-19 17:37:00,79.0,30.0,-100.00,North,-9999,16.0,25.0,16,-99.99,,,-99.99,,2018-04-19 23:37:00,
2018-04-19 18:00:00,77.0,30.0,-100.00,North,-9999,16.0,24.0,18,-99.99,,,-99.99,,2018-04-20 00:00:00,
2018-04-19 18:36:00,77.0,30.0,-100.00,North,-9999,16.0,24.0,18,-99.99,,,-99.99,,2018-04-20 00:36:00,
2018-04-19 19:00:00,75.0,30.0,-100.00,North,-9999,16.0,24.0,18,-99.99,,,-99.99,,2018-04-20 01:00:00,
2018-04-19 19:35:00,75.0,30.0,-100.00,North,-9999,16.0,24.0,18,-99.99,,,-99.99,,2018-04-20 01:35:00,
2018-04-19 20:00:00,71.0,30.0,-100.00,North,-9999,15.0,26.0,22,-99.99,,,-99.99,,2018-04-20 02:00:00,
2018-04-19 20:36:00,71.0,30.0,-100.00,North,-9999,15.0,26.0,22,-99.99,,,-99.99,,2018-04-20 02:36:00,
2018-04-19 21:00:00,69.0,31.0,-100.00,North,-9999,19.0,27.0,23,-99.99,,,-99.99,,2018-04-20 03:00:00,
2018-04-19 21:35:00,69.0,31.0,-100.00,North,-9999,19.0,27.0,23,-99.99,,,-99.99,,2018-04-20 03:35:00,